Marysville, OH

7:35 AM EST on December 11, 2016 (GMT -0500)
Marysville

Weather History for KMRT - July, 2013

Change the Weather History Date:

Thursday, July 11, 2013

  Actual Average (KDLZ) Record (KDLZ)
Temperature  
Mean Temperature 68 °F -  
Max Temperature 76 °F 84 °F 104 °F (1936)
Min Temperature 58 °F 61 °F 46 °F (1945)
Cooling Degree Days 2    
Growing Degree Days 18 (Base 50)    
Moisture  
Dew Point 58 °F    
Average Humidity 68    
Maximum Humidity 90    
Minimum Humidity 42    
Precipitation  
Precipitation 0.00 in - - ()
Sea Level Pressure  
Sea Level Pressure 30.01 in    
Wind  
Wind Speed 5 mph (NNE)    
Max Wind Speed 15 mph    
Max Gust Speed 21 mph    
Visibility 10 miles    
Events      
Averages and records for this station are not official NWS values.
T = Trace of Precipitation, MM = Missing Value Source: NWS Daily Summary

Daily Weather History Graph

Daily Weather History Graph

Search for Another Location

Airport or City:

Trip Planner

Search our weather history database for the weather conditions in past years. The results will help you decide how hot, cold, wet, or windy it might be!

Date:

Astronomy

Jul. 11, 2013 Rise Set
Actual Time 6:13 AM EDT 9:03 PM EDT
Civil Twilight 5:41 AM EDT 9:36 PM EDT
Nautical Twilight 5:00 AM EDT 10:16 PM EDT
Astronomical Twilight 4:14 AM EDT 11:03 PM EDT
Moon 9:31 AM EDT 10:43 PM EDT
Length of Visible Light 15h 54m
Length of Day
14h 50m
Waxing Crescent, 10% of the Moon is Illuminated
Jul 11
Waxing Crescent
Jul 15
First Quarter
Jul 22
Full
Jul 29
Last Quarter
Aug 6
New

Hourly Weather History & Observations

Time (EDT) Temp. Dew Point Humidity Pressure Visibility Wind Dir Wind Speed Gust Speed Precip Events Conditions
12:14 AM 66.6 °F 63.0 °F 88% 29.98 in 10.0 mi Calm Calm - N/A   Overcast
12:33 AM 66.6 °F 62.6 °F 87% 29.98 in 10.0 mi WSW 4.6 mph - N/A   Overcast
12:54 AM 66.4 °F 62.6 °F 88% 29.97 in 10.0 mi WSW 3.5 mph - N/A   Overcast
1:14 AM 66.6 °F 62.8 °F 88% 29.97 in 10.0 mi Calm Calm - N/A   Overcast
1:33 AM 66.7 °F 62.8 °F 87% 29.97 in 10.0 mi Calm Calm - N/A   Overcast
1:54 AM 67.1 °F 62.8 °F 86% 29.97 in 10.0 mi Calm Calm - N/A   Overcast
2:14 AM 67.1 °F 62.6 °F 85% 29.97 in 10.0 mi Calm Calm - N/A   Overcast
2:33 AM 67.3 °F 62.2 °F 84% 29.97 in 10.0 mi West 3.5 mph - N/A   Overcast
2:54 AM 67.1 °F 62.6 °F 85% 29.97 in 10.0 mi Calm Calm - N/A   Overcast
3:14 AM 66.7 °F 63.0 °F 88% 29.97 in 10.0 mi Calm Calm - N/A   Overcast
3:33 AM 66.4 °F 62.6 °F 88% 29.96 in 10.0 mi Calm Calm - N/A   Mostly Cloudy
3:54 AM 66.6 °F 62.8 °F 88% 29.97 in 10.0 mi Calm Calm - N/A   Overcast
4:14 AM 66.6 °F 63.5 °F 90% 29.97 in 10.0 mi Calm Calm - N/A   Overcast
4:33 AM 66.4 °F 63.0 °F 89% 29.97 in 10.0 mi Calm Calm - N/A   Overcast
4:54 AM 65.7 °F 62.6 °F 90% 29.97 in 10.0 mi Calm Calm - N/A   Overcast
5:14 AM 66.4 °F 61.2 °F 83% 29.97 in 10.0 mi North 3.5 mph - N/A   Mostly Cloudy
5:33 AM 66.0 °F 60.8 °F 83% 29.97 in 10.0 mi Calm Calm - N/A   Mostly Cloudy
5:54 AM 65.7 °F 60.1 °F 82% 29.98 in 10.0 mi North 4.6 mph - N/A   Mostly Cloudy
6:14 AM 65.3 °F 59.9 °F 83% 29.99 in 10.0 mi North 5.8 mph - N/A   Overcast
6:33 AM 64.9 °F 59.4 °F 82% 29.99 in 10.0 mi North 4.6 mph - N/A   Scattered Clouds
6:54 AM 64.9 °F 59.9 °F 84% 30.00 in 10.0 mi North 4.6 mph - N/A   Mostly Cloudy
7:14 AM 65.1 °F 59.9 °F 83% 30.00 in 10.0 mi North 5.8 mph - N/A   Mostly Cloudy
7:33 AM 66.2 °F 60.8 °F 83% 30.00 in 10.0 mi NNE 8.1 mph - N/A   Mostly Cloudy
7:54 AM 66.9 °F 61.7 °F 83% 30.00 in 10.0 mi NNE 8.1 mph - N/A   Overcast
8:14 AM 67.8 °F 62.2 °F 82% 30.00 in 10.0 mi NNE 6.9 mph - N/A   Scattered Clouds
8:33 AM 68.9 °F 62.1 °F 79% 30.01 in 10.0 mi NE 9.2 mph - N/A   Clear
8:54 AM 69.6 °F 60.8 °F 73% 30.01 in 10.0 mi NE 11.5 mph - N/A   Clear
9:14 AM 70.2 °F 60.3 °F 71% 30.02 in 10.0 mi ENE 10.4 mph 18.4 mph N/A   Scattered Clouds
9:33 AM 70.3 °F 59.5 °F 69% 30.02 in 10.0 mi NE 10.4 mph - N/A   Mostly Cloudy
9:54 AM 71.6 °F 58.8 °F 64% 30.02 in 10.0 mi ENE 15.0 mph 18.4 mph N/A   Scattered Clouds
10:14 AM 72.1 °F 59.0 °F 63% 30.03 in 10.0 mi NE 11.5 mph 18.4 mph N/A   Scattered Clouds
10:33 AM 72.7 °F 59.2 °F 62% 30.03 in 10.0 mi ENE 12.7 mph 18.4 mph N/A   Scattered Clouds
10:54 AM 72.9 °F 59.2 °F 62% 30.03 in 10.0 mi ENE 12.7 mph - N/A   Scattered Clouds
11:14 AM 72.9 °F 58.5 °F 60% 30.03 in 10.0 mi NE 11.5 mph - N/A   Mostly Cloudy
11:33 AM 73.8 °F 59.5 °F 61% 30.03 in 10.0 mi NE 10.4 mph - N/A   Mostly Cloudy
11:54 AM 72.5 °F 58.6 °F 62% 30.04 in 10.0 mi NE 12.7 mph - N/A   Overcast
12:14 PM 74.3 °F 58.6 °F 58% 30.04 in 10.0 mi NE 10.4 mph - N/A   Mostly Cloudy
12:33 PM 74.7 °F 59.2 °F 58% 30.04 in 10.0 mi ENE 10.4 mph - N/A   Scattered Clouds
12:54 PM 74.7 °F 57.9 °F 56% 30.04 in 10.0 mi ENE 9.2 mph - N/A   Clear
1:14 PM 75.2 °F 58.3 °F 56% 30.03 in 10.0 mi ENE 6.9 mph - N/A   Scattered Clouds
1:33 PM 75.9 °F 57.9 °F 54% 30.03 in 10.0 mi NNE 10.4 mph - N/A   Mostly Cloudy
1:53 PM 74.3 °F 58.8 °F 58% 30.04 in 10.0 mi NNE 9.2 mph - N/A   Mostly Cloudy
2:13 PM 73.6 °F 58.3 °F 59% 30.03 in 10.0 mi NNE 10.4 mph - N/A   Overcast
2:33 PM 76.1 °F 58.3 °F 54% 30.03 in 10.0 mi ENE 10.4 mph - N/A   Mostly Cloudy
2:54 PM 75.2 °F 57.6 °F 54% 30.03 in 10.0 mi NE 11.5 mph - N/A   Overcast
3:13 PM 76.3 °F 57.6 °F 52% 30.03 in 10.0 mi NE 11.5 mph - N/A   Scattered Clouds
3:34 PM 76.1 °F 57.2 °F 52% 30.03 in 10.0 mi NNE 12.7 mph 16.1 mph N/A   Scattered Clouds
3:54 PM 75.7 °F 55.2 °F 49% 30.03 in 10.0 mi NNE 13.8 mph 18.4 mph N/A   Mostly Cloudy
4:13 PM 76.1 °F 55.8 °F 49% 30.03 in 10.0 mi NNE 13.8 mph 20.7 mph N/A   Scattered Clouds
4:34 PM 76.3 °F 55.4 °F 48% 30.03 in 10.0 mi North 15.0 mph 19.6 mph N/A   Scattered Clouds
4:54 PM 76.1 °F 53.4 °F 45% 30.03 in 10.0 mi North 13.8 mph 20.7 mph N/A   Scattered Clouds
5:13 PM 76.3 °F 52.2 °F 43% 30.03 in 10.0 mi North 12.7 mph 19.6 mph N/A   Scattered Clouds
5:34 PM 75.6 °F 52.0 °F 44% 30.03 in 10.0 mi NNE 13.8 mph 18.4 mph N/A   Clear
5:54 PM 75.4 °F 52.7 °F 45% 30.03 in 10.0 mi NNE 12.7 mph 19.6 mph N/A   Clear
6:13 PM 74.5 °F 49.8 °F 42% 30.03 in 10.0 mi NNE 15.0 mph 19.6 mph N/A   Clear
6:34 PM 74.5 °F 51.1 °F 44% 30.03 in 10.0 mi NE 12.7 mph 20.7 mph N/A   Clear
6:53 PM 73.9 °F 50.0 °F 43% 30.03 in 10.0 mi NNE 12.7 mph 20.7 mph N/A   Clear
7:14 PM 73.6 °F 51.4 °F 46% 30.04 in 10.0 mi NE 12.7 mph - N/A   Clear
7:34 PM 72.7 °F 50.9 °F 46% 30.03 in 10.0 mi NE 10.4 mph - N/A   Clear
7:53 PM 72.5 °F 51.3 °F 47% 30.04 in 10.0 mi NE 9.2 mph - N/A   Clear
8:14 PM 71.1 °F 52.5 °F 52% 30.04 in 10.0 mi NE 4.6 mph - N/A   Clear
8:34 PM 70.0 °F 51.8 °F 52% 30.04 in 10.0 mi NNE 5.8 mph - N/A   Clear
8:53 PM 68.2 °F 52.5 °F 57% 30.03 in 10.0 mi NE 5.8 mph - N/A   Clear
9:14 PM 67.1 °F 52.7 °F 60% 30.03 in 10.0 mi NNE 3.5 mph - N/A   Clear
9:34 PM 66.0 °F 52.9 °F 63% 30.03 in 10.0 mi Calm Calm - N/A   Clear
9:53 PM 65.5 °F 52.7 °F 63% 30.04 in 10.0 mi NE 3.5 mph - N/A   Clear
10:14 PM 64.4 °F 53.2 °F 67% 30.04 in 10.0 mi Calm Calm - N/A   Clear
10:34 PM 62.6 °F 54.7 °F 75% 30.05 in 10.0 mi Calm Calm - N/A   Clear
10:53 PM 61.7 °F 55.0 °F 79% 30.05 in 10.0 mi Calm Calm - N/A   Clear
11:14 PM 59.4 °F 54.7 °F 84% 30.05 in 10.0 mi Calm Calm - N/A   Clear
11:34 PM 59.7 °F 55.6 °F 86% 30.05 in 10.0 mi Calm Calm - N/A   Clear
11:53 PM 58.8 °F 55.2 °F 88% 30.05 in 10.0 mi Calm Calm - N/A   Clear